Location: Les Jeannots
(43.2262°N, 5.5774°E)
Time: 08:30:03
(UTC+00:00)

Geosat - Pass Details

Date: 05 July 2020
Orbit: 763 x 766 km, 108.0° (Epoch: 04 August)

Event Time Altitude Azimuth Distance (km) Brightness Sun altitude
Exits shadow 20:14:48 - 164° (SSE) 2,612 6.2 -8.7°
Reaches altitude 10° 20:15:36 10° 166° (SSE) 2,293 6.0 -8.8°
Maximum altitude 20:20:32 60° 246° (WSW) 872 4.4 -9.4°
Drops below altitude 10° 20:25:31 10° 326° (NNW) 2,310 8.0 -10.1°
Sets 20:27:50 0° 330° (NNW) 3,241 9.0 -10.4°
